TimeCDT,TemperatureF,Dew PointF,Humidity,Sea Level PressureIn,VisibilityMPH,Wind Direction,Wind SpeedMPH,Gust SpeedMPH,PrecipitationIn,Events,Conditions,WindDirDegrees,DateUTC
12:15 AM,60.8,55.4,82,30.09,10.0,Calm,Calm,-,N/A,,Clear,0,2013-07-02 05:15:00
12:35 AM,59.0,57.2,94,30.09,10.0,Calm,Calm,-,N/A,,Clear,0,2013-07-02 05:35:00
12:55 AM,59.0,57.2,94,30.09,10.0,Calm,Calm,-,N/A,,Clear,0,2013-07-02 05:55:00
1:15 AM,59.0,59.0,100,30.09,10.0,Calm,Calm,-,N/A,,Clear,0,2013-07-02 06:15:00
1:35 AM,59.0,57.2,94,30.09,10.0,Calm,Calm,-,N/A,,Clear,0,2013-07-02 06:35:00
1:55 AM,57.2,57.2,100,30.09,10.0,Calm,Calm,-,N/A,,Clear,0,2013-07-02 06:55:00
2:15 AM,57.2,57.2,100,30.09,10.0,Calm,Calm,-,N/A,,Clear,0,2013-07-02 07:15:00
2:35 AM,57.2,57.2,100,30.09,10.0,Calm,Calm,-,N/A,,Clear,0,2013-07-02 07:35:00
2:55 AM,57.2,55.4,94,30.09,10.0,Calm,Calm,-,N/A,,Clear,0,2013-07-02 07:55:00
3:15 AM,55.4,55.4,100,30.09,10.0,Calm,Calm,-,N/A,,Clear,0,2013-07-02 08:15:00
3:35 AM,55.4,55.4,100,30.09,10.0,Calm,Calm,-,N/A,,Clear,0,2013-07-02 08:35:00
3:55 AM,55.4,55.4,100,30.09,10.0,Calm,Calm,-,N/A,,Clear,0,2013-07-02 08:55:00
4:15 AM,55.4,55.4,100,30.09,10.0,Calm,Calm,-,N/A,,Clear,0,2013-07-02 09:15:00
4:35 AM,55.4,55.4,100,30.09,10.0,Calm,Calm,-,N/A,,Clear,0,2013-07-02 09:35:00
4:55 AM,55.4,55.4,100,30.09,10.0,Calm,Calm,-,N/A,,Clear,0,2013-07-02 09:55:00
5:15 AM,53.6,53.6,100,30.10,10.0,Calm,Calm,-,N/A,,Clear,0,2013-07-02 10:15:00
5:35 AM,53.6,53.6,100,30.11,10.0,Calm,Calm,-,N/A,,Clear,0,2013-07-02 10:35:00
5:55 AM,53.6,53.6,100,30.11,10.0,Calm,Calm,-,N/A,,Clear,0,2013-07-02 10:55:00
6:15 AM,53.6,53.6,100,30.12,10.0,Calm,Calm,-,N/A,,Clear,0,2013-07-02 11:15:00
6:35 AM,53.6,53.6,100,30.12,10.0,Calm,Calm,-,N/A,,Clear,0,2013-07-02 11:35:00
6:55 AM,53.6,53.6,100,30.13,10.0,Calm,Calm,-,N/A,,Clear,0,2013-07-02 11:55:00
7:15 AM,55.4,55.4,100,30.13,10.0,Calm,Calm,-,N/A,,Clear,0,2013-07-02 12:15:00
7:35 AM,59.0,55.4,88,30.13,10.0,Calm,Calm,-,N/A,,Clear,0,2013-07-02 12:35:00
7:55 AM,60.8,57.2,88,30.13,10.0,Calm,Calm,-,N/A,,Clear,0,2013-07-02 12:55:00
8:15 AM,62.6,57.2,82,30.13,10.0,Calm,Calm,-,N/A,,Clear,0,2013-07-02 13:15:00
8:35 AM,64.4,57.2,77,30.13,10.0,Calm,Calm,-,N/A,,Clear,0,2013-07-02 13:35:00
8:55 AM,66.2,57.2,73,30.14,10.0,Calm,Calm,-,N/A,,Clear,0,2013-07-02 13:55:00
9:15 AM,68.0,57.2,68,30.13,10.0,WNW,3.5,-,N/A,,Clear,300,2013-07-02 14:15:00
9:35 AM,69.8,57.2,64,30.14,10.0,NW,3.5,-,N/A,,Clear,320,2013-07-02 14:35:00
9:55 AM,71.6,55.4,57,30.13,10.0,North,5.8,-,N/A,,Clear,350,2013-07-02 14:55:00
10:15 AM,73.4,51.8,47,30.13,10.0,North,6.9,-,N/A,,Clear,10,2013-07-02 15:15:00
10:35 AM,75.2,51.8,44,30.13,10.0,North,4.6,-,N/A,,Clear,10,2013-07-02 15:35:00
10:55 AM,75.2,48.2,38,30.13,10.0,NNE,5.8,-,N/A,,Clear,30,2013-07-02 15:55:00
11:15 AM,77.0,44.6,32,30.13,10.0,North,8.1,-,N/A,,Clear,10,2013-07-02 16:15:00
11:35 AM,77.0,44.6,32,30.12,10.0,NNE,10.4,-,N/A,,Unknown,20,2013-07-02 16:35:00
11:55 AM,77.0,46.4,34,30.12,10.0,NNE,6.9,-,N/A,,Clear,20,2013-07-02 16:55:00
12:15 PM,77.0,46.4,34,30.12,10.0,North,9.2,16.1,N/A,,Clear,350,2013-07-02 17:15:00
12:35 PM,78.8,46.4,32,30.12,10.0,ENE,5.8,-,N/A,,Clear,70,2013-07-02 17:35:00
12:55 PM,78.8,46.4,32,30.12,10.0,North,6.9,-,N/A,,Clear,360,2013-07-02 17:55:00
1:15 PM,78.8,46.4,32,30.12,10.0,North,5.8,-,N/A,,Clear,350,2013-07-02 18:15:00
1:35 PM,78.8,46.4,32,30.11,10.0,NNE,6.9,-,N/A,,Clear,20,2013-07-02 18:35:00
1:55 PM,78.8,46.4,32,30.11,10.0,ENE,9.2,-,N/A,,Clear,60,2013-07-02 18:55:00
2:15 PM,78.8,46.4,32,30.10,10.0,NNE,4.6,-,N/A,,Clear,20,2013-07-02 19:15:00
2:35 PM,80.6,46.4,30,30.10,10.0,NNE,9.2,-,N/A,,Clear,20,2013-07-02 19:35:00
2:55 PM,80.6,46.4,30,30.10,10.0,NNE,8.1,-,N/A,,Scattered Clouds,30,2013-07-02 19:55:00
3:15 PM,80.6,48.2,32,30.09,10.0,NNE,6.9,-,N/A,,Scattered Clouds,20,2013-07-02 20:15:00
3:35 PM,80.6,50.0,34,30.08,10.0,North,11.5,-,N/A,,Clear,10,2013-07-02 20:35:00
3:55 PM,80.6,48.2,32,30.08,10.0,NNW,6.9,-,N/A,,Scattered Clouds,330,2013-07-02 20:55:00
4:15 PM,80.6,50.0,34,30.07,10.0,NNE,5.8,-,N/A,,Mostly Cloudy,30,2013-07-02 21:15:00
4:35 PM,80.6,50.0,34,30.07,10.0,NNW,8.1,-,N/A,,Scattered Clouds,330,2013-07-02 21:35:00
4:55 PM,80.6,50.0,34,30.07,10.0,Calm,Calm,-,N/A,,Clear,0,2013-07-02 21:55:00
5:15 PM,80.6,50.0,34,30.06,10.0,NNW,6.9,-,N/A,,Scattered Clouds,340,2013-07-02 22:15:00
5:35 PM,80.6,50.0,34,30.06,10.0,North,3.5,-,N/A,,Clear,350,2013-07-02 22:35:00
5:55 PM,80.6,48.2,32,30.05,10.0,Calm,Calm,-,N/A,,Clear,0,2013-07-02 22:55:00
6:15 PM,80.6,50.0,34,30.05,10.0,NNW,4.6,-,N/A,,Unknown,340,2013-07-02 23:15:00
6:35 PM,80.6,50.0,34,30.05,10.0,Calm,Calm,-,N/A,,Mostly Cloudy,0,2013-07-02 23:35:00
6:55 PM,78.8,51.8,39,30.05,10.0,NE,3.5,-,N/A,,Overcast,40,2013-07-02 23:55:00
7:15 PM,73.4,57.2,57,30.05,7.0,ESE,9.2,16.1,N/A,Rain,Light Rain,120,2013-07-03 00:15:00
7:35 PM,73.4,59.0,61,30.06,10.0,NNE,10.4,-,N/A,Thunderstorm,Overcast,30,2013-07-03 00:35:00
7:55 PM,73.4,55.4,53,30.07,10.0,NNE,8.1,-,N/A,,Overcast,20,2013-07-03 00:55:00
8:15 PM,71.6,59.0,64,30.07,10.0,East,5.8,-,N/A,Thunderstorm,Thunderstorm,90,2013-07-03 01:15:00
8:35 PM,69.8,59.0,68,30.07,10.0,ESE,3.5,-,N/A,Thunderstorm,Thunderstorm,120,2013-07-03 01:35:00
8:55 PM,68.0,59.0,73,30.07,10.0,SE,5.8,-,N/A,Thunderstorm,Scattered Clouds,140,2013-07-03 01:55:00
9:15 PM,68.0,57.2,68,30.08,10.0,Calm,Calm,-,N/A,,Mostly Cloudy,0,2013-07-03 02:15:00
9:35 PM,68.0,57.2,68,30.08,10.0,ESE,3.5,-,N/A,,Mostly Cloudy,120,2013-07-03 02:35:00
9:55 PM,66.2,57.2,73,30.08,10.0,South,3.5,-,N/A,,Scattered Clouds,180,2013-07-03 02:55:00
10:15 PM,64.4,57.2,77,30.10,10.0,North,11.5,-,N/A,,Clear,10,2013-07-03 03:15:00
10:35 PM,64.4,55.4,73,30.09,10.0,Calm,Calm,-,N/A,,Clear,0,2013-07-03 03:35:00
10:55 PM,62.6,57.2,82,30.08,10.0,Calm,Calm,-,N/A,,Clear,0,2013-07-03 03:55:00
11:15 PM,62.6,57.2,82,30.08,10.0,Calm,Calm,-,N/A,,Clear,0,2013-07-03 04:15:00
11:35 PM,60.8,59.0,94,30.07,10.0,SW,4.6,-,N/A,,Clear,220,2013-07-03 04:35:00
11:55 PM,60.8,59.0,94,30.07,10.0,Calm,Calm,-,N/A,,Clear,0,2013-07-03 04:55:00